Location: Bu�n Treun
(12.1333°N, 108.3167°E)
Time: 23:45:54
(UTC+00:00)

Meteor PRIRODA - Pass Details

Date: 13 July 2020
Orbit: 491 x 510 km, 97.6° (Epoch: 14 August)

Event Time Altitude Azimuth Distance (km) Brightness Sun altitude
Rises 21:56:47 0° 360° (N) 2,570 7.6 -8.1°
Reaches altitude 10° 21:58:56 10° 353° (N) 1,691 6.5 -7.7°
Maximum altitude 22:02:21 40° 282° (WNW) 747 4.1 -6.9°
Drops below altitude 10° 22:05:48 10° 212° (SSW) 1,701 5.8 -6.1°
Sets 22:07:58 0° 204° (SSW) 2,588 6.8 -5.7°
